Location: Ferchesar
(52.6477°N, 12.4298°E)
Time: 11:10:36
(UTC+01:00)

A-11 Canister half - Pass Details

Date: 10 December 2021
Orbit: 1516 x 1684 km, 47.2° (Epoch: 22 January)

Event Time Altitude Azimuth Distance (km) Brightness Sun altitude
Exits shadow 03:59:08 - 182° (S) 4,190 11.2 -36.7°
Reaches altitude 10° 04:01:09 10° 173° (S) 3,747 11.0 -36.4°
Maximum altitude 04:07:29 20° 131° (SE) 3,058 10.9 -35.4°
Drops below altitude 10° 04:13:56 10° 89° (E) 3,848 11.9 -34.4°
Sets 04:18:09 0° 74° (ENE) 4,867 12.7 -33.8°
